[Date Prev][Date Next][Thread Prev][Thread Next] - [Date Index][Thread Index][Author Index]
2 Line ISS Keps 4-2
- Subject: [sarex] 2 Line ISS Keps 4-2
- From: "Dave Larsen PhD" <doc@xxxxxxxxxxx>
- Date: Sat, 2 Apr 2005 01:44:46 -0800
ISS
1 25544U 98067A 05092.14849537 .00017118 00000-0 14067-3 0 1493
2 25544 051.6455 290.0247 0005679 322.2043 176.3399 15.70542150363724
----
Via the sarex mailing list at AMSAT.ORG courtesy of AMSAT-NA.
To unsubscribe, send "unsubscribe sarex" to Majordomo@amsat.org
AMSAT Home